< < Back
Terminal Aerodrome Forecast


Current Version              Previous Versions:   1  2  3  4  5  6  7  8  9  

Terminal Aerodrome Forecast

968
FTUS42 KCAE 291100
TAFAGS
TAF
KAGS 291123Z 2912/3012 07004KT P6SM SKC
     FM291900 17005KT P6SM SCT250
     FM300100 VRB03KT P6SM SCT250
     FM300900 23005KT P6SM BKN060=

Latest METAR

906
SAUS70 KWBC 292000 RRH
MTRAGS
METAR KAGS 291953Z AUTO 10005KT 10SM CLR 14/M12 A3034 RMK AO2 SLP272
T01391122


USA.gov is the U.S. government's official web portal to all federal, state and local government web resources and services.